IW1AXR-3 Weather Reports


Display with metric or nautical units.
time (UTC)temp
F
wind
direction
speed
MPH
gust
MPH
rain 1hr
in
rain 24hr
in
rain mn
in
humidity
%
barometer
mb
20260506223950 49 0.0 0.0 0.00 0.00 0.00 1008.7
20260506222934 50 0.0 0.0 0.00 0.00 0.00 1008.7
20260506221925 49 0.0 0.0 0.00 0.00 0.00 1008.6
20260506220908 50 0.0 0.0 0.00 0.00 0.00 1008.8
20260506215858 50 0.0 0.0 0.00 0.00 0.00 1008.8
20260506214814 50 0.0 0.0 0.00 0.00 0.00 1008.7
20260506212747 50 0.0 0.0 0.00 0.00 0.00 1008.4
20260506211734 51 0.0 0.0 0.00 0.00 0.00 1008.4
20260506205712 52 0.0 0.0 0.00 0.00 0.00 1008.4
20260506204657 52 0.0 0.0 0.00 0.00 0.00 1008.3
20260506193537 54 0.0 0.0 0.00 0.00 0.00 1006.6
20260506190453 55 0.0 0.0 0.00 0.00 0.00 1005.8
20260506184427 55 0.0 0.0 0.00 0.00 0.00 98 1005.6
20260506182409 56 0.0 0.0 0.00 0.00 0.00 91 1005.2
20260506175336 58 0.0 0.0 0.00 0.00 0.00 84 1004.5
20260506155116 65 0.0 0.0 0.00 0.00 0.00 60 1003.4
20260506154107 64 0.0 0.0 0.00 0.00 0.00 56 1003.4
20260506151038 70 0.0 0.0 0.00 0.00 0.00 50 1003.6
20260506143012 64 0.0 0.0 0.00 0.00 0.00 57 1003.6
20260506132855 66 0.0 0.0 0.00 0.00 0.00 52 1003.7
20260506121740 73 0.0 0.0 0.00 0.00 0.00 52 1004.0
20260506105550 69 0.0 0.0 0.00 0.00 0.00 60 1004.8
20260506100508 66 0.0 0.0 0.00 0.00 0.00 69 1005.3
20260506095506 68 0.0 0.0 0.00 0.00 0.00 68 1005.3
20260506093434 63 0.0 0.0 0.00 0.00 0.00 78 1005.4
20260506090409 58 0.0 0.0 0.00 0.00 0.00 84 1005.3
20260506084351 56 0.0 0.0 0.00 0.00 0.00 87 1005.3
20260506083325 57 0.0 0.0 0.00 0.00 0.00 88 1005.3
20260506082259 59 0.0 0.0 0.00 0.00 0.00 1005.5
20260506080233 53 0.0 0.0 0.00 0.00 0.00 1005.6
20260506073159 54 0.0 0.0 0.00 0.00 0.00 1005.6
20260506072144 51 0.0 0.0 0.00 0.00 0.00 1005.6
20260506071135 54 0.0 0.0 0.00 0.00 0.00 1005.6
20260506070128 53 0.0 0.0 0.00 0.00 0.00 1005.6
20260506062036 48 0.0 0.0 0.00 0.00 0.00 1005.9
20260506061018 48 0.0 0.0 0.00 0.00 0.00 1005.9
20260506050908 46 0.0 0.0 0.00 0.00 0.00 1006.1
20260506044849 46 0.0 0.0 0.00 0.00 0.00 1006.2
20260506043839 47 0.0 0.0 0.00 0.00 0.00 1006.3
20260506042811 47 0.0 0.0 0.00 0.00 0.00 1006.5
20260506035745 47 0.0 0.0 0.00 0.00 0.00 1006.9
20260506034727 47 0.0 0.0 0.00 0.00 0.00 1006.8
20260506032706 47 0.0 0.0 0.00 0.00 0.00 1006.9
20260506031658 47 0.0 0.0 0.00 0.00 0.00 1007.0
20260506025632 47 0.0 0.0 0.00 0.00 0.00 1007.4
20260506024621 47 0.0 0.0 0.00 0.00 0.00 1006.8
20260506023616 47 0.0 0.0 0.00 0.00 0.00 1007.6
20260506022604 47 0.0 0.0 0.00 0.00 0.00 1007.5
20260506020535 47 0.0 0.0 0.00 0.00 0.00 1007.9
20260506015522 47 0.0 0.0 0.00 0.00 0.00 1007.8
20260506014512 47 0.0 0.0 0.00 0.00 0.00 1007.7
20260506013505 47 0.0 0.0 0.00 0.00 0.00 1007.9
20260506012458 47 0.0 0.0 0.00 0.00 0.00 1008.0
20260506010439 48 0.0 0.0 0.00 0.00 0.00 1008.3
20260506005433 48 0.0 0.0 0.00 0.00 0.00 1008.5
20260506004411 48 0.0 0.0 0.00 0.00 0.00 1008.5
20260506003408 48 0.0 0.0 0.00 0.00 0.00 1008.8
20260506002400 48 0.0 0.0 0.00 0.00 0.00 1009.0
20260506000323 48 0.0 0.0 0.00 0.00 0.00 1009.6
20260505235308 48 0.0 0.0 0.00 0.00 0.00 1009.7
20260505234254 49 0.0 0.0 0.00 0.00 0.00 1009.5
20260505232227 49 0.0 0.0 0.00 0.00 0.00 1010.0
20260505231210 49 0.0 0.0 0.00 0.00 0.00 1010.0
20260505230206 49 0.0 0.0 0.00 0.00 0.00 1009.9